This demonstration page uses our WeatherBlox Daily Observations layout. Learn more.

Left ArrowRight Arrow

39.51506, -84.39828

Hourly Observations for April 17, 2021

Temp ( °F °C ) Dew Point ( °F °C ) Humidity (%) Winds ( mph kmh ) Pressure ( in mb ) Visibility ( mi km ) Precip ( " mm )
12:15 am 00:15 Clear 47 8.6 39 4 73 73 NE 5 7 29.92 1013 10 16.0934 0 0
12:35 am 00:35 Clear 48 8.8 39 3.9 72 72 NE 5 7 29.93 1014 10 16.0934 0 0
12:55 am 00:55 Clear 46 7.5 40 4.3 80 80 ENE 3 6 29.94 1014 10 16.0934 0 0
1:15 am 01:15 Clear 46 7.5 44 6.7 95 95 ENE 5 7 29.93 1013 10 16.0934 0 0
1:35 am 01:35 Clear 45 7 39 3.9 81 81 ENE 3 6 29.93 1013 10 16.0934 0 0
1:55 am 01:55 Clear 45 7.1 40 4.3 83 83 N 3 6 29.93 1013 10 16.0934 0 0
2:15 am 02:15 Clear 46 7.9 39 3.7 75 75 NNE 6 9 29.92 1013 10 16.0934 0 0
2:35 am 02:35 Clear 44 6.8 40 4.5 85 85 N 6 9 29.93 1013 10 16.0934 0 0
2:55 am 02:55 Clear 44 6.5 40 4.5 87 87 N 6 9 29.93 1013 10 16.0934 0 0
3:15 am 03:15 Clear 40 4.7 39 3.8 94 94 Calm 29.92 1013 10 16.0934 0 0
3:35 am 03:35 Clear 41 5 40 4.4 96 96 N 3 6 29.93 1014 10 16.0934 0 0
3:55 am 03:55 Clear 39 4.1 39 3.9 99 99 NNE 3 6 29.92 1013 10 16.0934 0 0
4:15 am 04:15 Clear 40 4.4 40 4.3 99 99 Calm 29.92 1013 10 16.0934 0 0
4:35 am 04:35 Clear 40 4.2 39 4.1 99 99 Calm 29.92 1013 10 16.0934 0 0
4:55 am 04:55 Clear 40 4.4 40 4.2 99 99 Calm 29.92 1013 10 16.0934 0 0
5:15 am 05:15 Clear 40 4.3 39 3.9 97 97 NNE 3 6 29.92 1013 10 16.0934 0 0
5:35 am 05:35 Clear 40 4.2 39 4.1 99 99 Calm 29.92 1013 10 16.0934 0 0
5:55 am 05:55 Clear 40 4.6 40 4.3 98 98 Calm 29.92 1013 10 16.0934 0 0
6:15 am 06:15 Clear 40 4.7 40 4.3 97 97 Calm 29.92 1013 10 16.0934 0 0
6:35 am 06:35 Clear 40 4.6 40 4.3 98 98 Calm 29.92 1013 10 16.0934 0 0
6:55 am 06:55 Clear 41 4.9 40 4.4 97 97 Calm 29.92 1013 10 16.0934 0 0
7:15 am 07:15 Sunny 40 4.7 40 4.5 99 99 Calm 29.92 1013 10 16.0934 0 0
7:35 am 07:35 Sunny 41 4.9 40 4.7 99 99 Calm 29.93 1014 10 16.0934 0 0
7:55 am 07:55 Sunny 42 5.4 41 4.9 97 97 Calm 29.93 1014 10 16.0934 0 0
8:15 am 08:15 Sunny 43 6.2 42 5.3 94 94 Calm 29.94 1014 10 16.0934 0 0
8:35 am 08:35 Sunny 44 6.9 40 4.5 85 85 NNE 5 7 29.94 1014 10 16.0934 0 0
8:55 am 08:55 Sunny 45 7.3 41 4.8 84 84 Calm 29.94 1014 10 16.0934 0 0
9:15 am 09:15 Sunny 46 7.7 41 5.2 84 84 NE 3 6 29.93 1014 10 16.0934 0 0
9:35 am 09:35 Sunny 47 8.3 41 5.1 80 80 NNE 3 6 29.93 1014 10 16.0934 0 0
9:55 am 09:55 Partly Cloudy 48 8.7 42 5.5 81 81 NNE 3 6 29.92 1013 10 16.0934 0 0
10:15 am 10:15 Partly Cloudy 49 9.2 42 5.6 78 78 Calm 29.93 1014 10 16.0934 0 0
10:35 am 10:35 Partly Cloudy 50 10 42 5.6 74 74 Calm 29.92 1013 10 16.0934 0 0
10:55 am 10:55 Partly Cloudy 51 10.4 43 5.9 74 74 Calm 29.93 1013 10 16.0934 0 0
11:15 am 11:15 Cloudy with Light Rain 52 10.9 44 6.5 75 75 Calm 29.93 1013 10 16.0934 0 0
11:35 am 11:35 Cloudy with Light Rain 53 11.7 43 6.2 69 69 W 7 11 29.92 1013 10 16.0934 0 0
11:55 am 11:55 Cloudy with Light Rain 55 12.5 43 6 65 65 W 8 13 29.92 1013 10 16.0934 0 0
12:15 pm 12:15 Cloudy 55 12.5 42 5.6 63 63 NW 12 19 29.92 1013 10 16.0934 0 0
12:35 pm 12:35 Cloudy 55 12.6 42 5.4 62 62 WNW 12 19 29.92 1013 10 16.0934 0 0
12:55 pm 12:55 Cloudy with Light Rain 54 12.2 42 5.4 63 63 W 9 15 29.92 1013 10 16.0934 0 0
1:15 pm 13:15 Cloudy 55 12.5 41 5 61 61 NW 13 20 29.92 1013 10 16.0934 0 0
1:35 pm 13:35 Cloudy with Light Rain 53 11.5 43 6.1 70 70 WNW 9 15 29.93 1013 10 16.0934 0 0
1:55 pm 13:55 Cloudy with Light Rain 51 10.5 44 6.4 76 76 WNW 9 15 29.94 1014 10 16.0934 0 0
2:15 pm 14:15 Cloudy with Light Rain 49 9.6 45 7.3 86 86 W 7 11 29.94 1014 10 16.0934 0.01 0.254
2:35 pm 14:35 Cloudy with Light Rain 50 10.1 46 7.5 84 84 WNW 8 13 29.93 1013 10 16.0934 0.01 0.254
2:55 pm 14:55 Cloudy with Light Rain 51 10.7 46 7.8 82 82 W 7 11 29.94 1014 10 16.0934 0.01 0.254
3:15 pm 15:15 Cloudy 52 11.3 46 7.6 78 78 SW 6 9 29.93 1013 10 16.0934 0 0
3:35 pm 15:35 Cloudy 52 11.2 46 7.6 79 79 SSW 6 9 29.93 1013 10 16.0934 0 0
3:55 pm 15:55 Cloudy 52 11.2 47 8.6 84 84 SSW 6 9 29.92 1013 10 16.0934 0 0
4:15 pm 16:15 Cloudy 53 11.7 47 8.1 79 79 SW 7 11 29.91 1013 10 16.0934 0 0
4:35 pm 16:35 Cloudy 53 11.6 45 7.2 75 75 SSW 7 11 29.9 1013 10 16.0934 0 0
4:55 pm 16:55 Cloudy 53 11.9 46 7.5 75 75 SW 7 11 29.9 1013 10 16.0934 0 0
5:15 pm 17:15 Cloudy 54 12 45 7.2 73 73 SW 10 17 29.9 1013 10 16.0934 0 0
5:35 pm 17:35 Cloudy 54 12.2 45 7.3 72 72 SW 9 15 29.9 1013 10 16.0934 0 0
5:55 pm 17:55 Cloudy 54 12.3 43 5.9 65 65 WSW 8 13 29.9 1013 10 16.0934 0 0
6:15 pm 18:15 Cloudy 54 12.4 43 6.1 66 66 SW 7 11 29.9 1013 10 16.0934 0 0
6:35 pm 18:35 Mostly Cloudy 55 12.5 42 5.6 63 63 SW 9 15 29.9 1013 10 16.0934 0 0
6:55 pm 18:55 Mostly Cloudy 56 13.2 43 6.3 63 63 SW 9 15 29.9 1013 10 16.0934 0 0
7:15 pm 19:15 Partly Cloudy 55 12.9 43 6 63 63 SW 8 13 29.9 1013 10 16.0934 0 0
7:35 pm 19:35 Sunny 54 12 43 6 67 67 SW 10 17 29.9 1013 10 16.0934 0 0
7:55 pm 19:55 Sunny 52 11.2 43 6.3 72 72 SW 9 15 29.91 1013 10 16.0934 0 0
8:15 pm 20:15 Sunny 50 10 44 6.4 79 79 SW 6 9 29.92 1013 10 16.0934 0 0
8:35 pm 20:35 Clear 49 9.7 43 6.2 79 79 SW 6 9 29.92 1013 10 16.0934 0 0
8:55 pm 20:55 Clear 46 7.6 44 6.6 93 93 Calm 29.93 1013 10 16.0934 0 0
9:15 pm 21:15 Clear 43 6.2 43 6.1 99 99 Calm 29.94 1014 10 16.0934 0 0
9:35 pm 21:35 Clear 45 7 43 6 93 93 Calm 29.95 1014 10 16.0934 0 0
9:55 pm 21:55 Clear 41 5 N/A N/A Calm 29.95 1014 10 16.0934 0 0
10:15 pm 22:15 Clear 43 6 N/A N/A Calm 29.96 1015 10 16.0934 0 0
10:35 pm 22:35 Clear 41 5 N/A N/A Calm 29.96 1015 10 16.0934 0 0
10:55 pm 22:55 Clear with Mist and Fog 41 5 N/A N/A Calm 29.96 1015 3.5 5.63269 0 0
11:15 pm 23:15 Clear with Mist and Fog 39 4 N/A N/A Calm 29.95 1014 3 4.82802 0 0
11:35 pm 23:35 Clear 39 4 N/A N/A SW 5 7 29.95 1014 10 16.0934 0 0
11:55 pm 23:55 Mostly Cloudy with Mist and Fog 39 4 N/A N/A SW 3 6 29.96 1015 1.75 2.816345 0 0

Powered by AerisWeather